Theta_e
345 344 341 332 331 332 332 333 335 338 340 341 343 343 342 342 339 332 332 334 335 333 335 338 340 339 341 342 329 328 330 325 331 340 331 323 338 341 328 333 341 341 335
345 345 343 334 332 332 332 332 333 334 335 335 335 336 337 336 334 334 331 333 334 335 335 337 338 339 341 337 326 329 338 332 338 333 330 324 336 340 331 321 324 325 320
346 346 343 336 333 332 332 333 335 336 336 336 336 335 335 336 337 335 331 334 337 332 335 336 337 339 334 327 324 326 330 337 336 338 338 339 331 328 320 330 321 318 338
345 347 347 342 336 333 333 333 334 335 337 337 338 337 340 342 339 336 333 335 336 337 337 337 334 331 328 326 328 335 331 333 334 332 338 337 334 323 325 325 338 339 328
345 345 344 343 340 336 335 333 333 334 336 338 337 337 338 339 340 340 341 339 339 337 335 338 335 328 327 331 334 336 328 335 330 338 335 340 339 329 341 336 325 333 340
345 344 345 344 342 341 338 335 334 334 336 338 338 338 337 338 338 339 340 341 340 339 333 339 331 329 333 333 337 332 332 335 330 329 330 330 339 325 329 328 328 324 327
343 343 344 344 343 343 342 339 336 337 339 339 338 336 337 337 338 339 340 339 341 339 333 338 330 332 330 330 336 338 338 340 339 336 334 338 331 326 338 328 321 332 329
343 343 344 344 343 342 343 342 341 341 341 341 340 338 336 337 338 337 338 341 339 340 339 331 332 339 335 336 336 341 341 339 339 338 338 332 332 325 328 324 323 325 324
342 341 342 342 342 341 341 341 341 341 341 340 341 340 338 337 338 340 338 338 339 339 340 337 333 333 334 339 341 342 341 339 340 337 337 334 328 327 325 329 327 324 325
340 340 340 339 339 339 338 339 339 340 340 340 339 339 339 338 338 339 337 336 336 337 339 339 336 333 334 338 340 340 340 340 343 339 339 340 338 330 329 327 324 329 325
337 337 337 337 336 337 337 337 338 339 339 339 337 339 338 342 341 338 337 336 336 336 338 340 340 335 333 333 335 337 340 342 344 340 339 340 339 338 330 327 328 326 326
338 336 335 335 335 335 336 336 337 339 341 341 341 338 341 342 338 337 335 336 337 338 337 337 340 340 336 341 340 333 341 339 342 340 340 339 340 340 339 333 326 330 326
343 341 343 338 336 335 335 335 334 333 336 336 339 339 338 338 337 336 335 335 341 338 340 340 340 343 341 338 341 337 334 338 341 342 343 341 342 343 343 341 337 328 329
346 345 346 344 341 340 339 337 335 339 339 335 338 335 337 338 336 339 339 339 339 340 337 335 339 338 340 341 340 338 333 335 341 342 341 343 342 342 344 343 341 338 331
346 348 347 348 346 345 343 342 340 343 341 337 338 338 339 337 338 335 342 343 344 343 340 334 334 337 338 340 338 339 338 333 333 340 341 342 343 343 343 344 343 341 338
347 348 349 349 348 346 345 345 346 344 344 344 342 340 338 338 340 338 341 342 342 343 342 340 339 339 343 342 340 337 340 337 334 334 335 337 340 343 343 344 344 343 342
347 347 349 349 349 348 347 347 347 345 345 345 344 341 341 340 340 340 340 341 342 343 344 343 342 338 336 341 338 338 340 341 341 339 341 340 338 341 344 343 343 342 342
348 348 349 349 350 349 349 349 348 347 347 341 339 340 340 342 341 341 341 341 341 343 341 340 339 340 340 339 339 338 338 339 341 342 342 343 338 342 343 341 341 342 340
348 349 349 349 350 350 349 348 349 347 342 337 339 342 344 342 342 341 341 340 341 341 338 339 338 337 337 338 339 340 338 338 339 339 342 343 339 340 342 343 344 342 341
349 349 349 349 349 351 350 348 348 346 338 336 337 343 343 343 342 342 342 342 341 340 339 338 338 339 340 339 342 340 339 340 339 342 343 343 342 342 343 343 342 343 343
349 349 349 349 349 351 350 348 347 347 337 336 337 339 342 344 342 342 342 342 341 339 339 338 340 342 341 342 341 342 343 343 343 344 344 344 344 343 343 343 343 342 342
349 349 348 349 349 350 350 349 347 345 339 334 338 338 339 341 341 342 343 340 338 340 339 340 341 341 342 342 340 343 341 342 341 341 341 341 341 341 341 341 341 343 342
349 349 349 348 346 344 346 347 346 345 341 334 334 338 339 339 339 340 342 342 340 338 340 343 342 343 342 341 341 344 343 342 343 339 340 340 340 339 339 340 340 340 342
349 349 348 340 336 339 344 344 347 347 346 335 335 338 338 340 340 340 340 341 341 343 342 341 341 340 339 342 341 341 341 339 342 342 340 340 340 339 339 340 341 341 341
349 348 346 336 335 336 336 341 346 348 347 341 336 340 339 339 341 341 339 338 339 338 337 336 338 338 339 340 340 340 339 341 341 343 343 341 341 341 341 343 343 342 342
349 346 341 341 336 336 336 337 345 347 346 341 336 340 339 338 340 340 341 341 340 337 334 334 338 340 341 340 340 340 342 342 340 342 343 342 341 340 342 341 342 341 341
Wind_Speed
17 16 17 18 18 17 16 14 15 15 14 13 13 13 11 10 7 6 6 7 8 9 8 8 9 8 9 10 7 10 8 12 14 13 13 13 13 13 11 14 16 13 13
19 17 16 17 17 18 17 15 14 15 14 14 13 12 11 9 7 6 7 8 9 8 7 8 9 11 9 8 9 13 11 14 14 12 13 13 12 13 11 12 12 12 12
19 17 15 15 16 16 16 15 14 14 14 14 13 12 10 9 8 7 7 7 6 7 9 10 10 9 7 8 11 14 15 15 12 12 12 10 10 10 10 12 12 12 13
18 17 15 14 14 15 14 14 14 13 11 11 10 11 10 9 8 7 7 7 7 8 9 8 8 8 8 11 14 15 15 14 11 11 10 10 9 12 11 11 12 11 11
17 17 16 13 13 13 13 13 13 12 10 10 10 9 8 8 8 8 8 7 8 7 8 7 7 8 11 13 15 14 14 12 11 11 10 9 8 11 9 10 10 10 9
16 16 15 14 13 12 12 12 12 11 10 9 10 9 8 11 10 8 6 7 8 8 9 8 7 9 11 14 15 15 14 12 12 12 10 9 8 9 9 9 8 9 8
16 15 15 14 12 11 11 12 12 12 10 10 10 9 8 10 7 6 7 7 7 9 7 10 9 10 10 13 17 15 12 10 10 9 8 7 8 8 8 7 8 8 7
15 15 15 13 11 10 11 11 11 11 10 10 10 10 9 8 7 6 7 8 7 8 7 7 10 11 12 14 13 11 10 10 8 8 7 7 7 8 9 7 6 6 6
14 14 14 13 12 11 9 10 11 11 11 10 11 10 10 10 8 7 7 7 8 8 8 8 8 10 13 13 13 10 9 10 9 9 7 6 6 7 8 7 5 6 6
13 13 13 13 12 11 10 10 10 11 11 11 11 10 10 10 9 9 8 9 9 9 10 10 10 10 12 13 13 11 10 8 6 8 8 7 5 5 6 7 7 5 6
13 12 12 11 11 11 11 10 10 10 10 10 10 11 11 10 11 11 10 8 9 10 11 11 11 12 11 12 13 13 12 10 8 8 8 7 6 4 4 6 7 7 7
12 11 10 10 10 11 11 11 10 9 8 10 11 11 12 12 13 12 11 11 10 10 10 10 12 13 13 11 12 15 13 13 10 10 10 8 7 5 3 3 5 7 8
11 12 9 9 10 11 11 11 10 8 7 11 13 13 14 14 15 14 14 14 12 10 9 10 11 11 13 13 12 14 16 16 13 12 11 9 8 7 6 6 5 7 8
14 12 11 9 9 9 9 11 10 11 7 9 18 17 17 16 16 16 16 14 13 11 10 10 10 11 11 12 13 16 17 17 16 16 14 12 11 9 9 8 8 8 8
14 13 12 10 8 9 9 9 11 13 15 11 11 18 19 19 18 18 17 16 14 14 12 11 11 10 10 10 12 13 16 19 19 20 18 16 13 13 12 10 11 9 9
14 12 12 10 8 9 8 8 10 11 16 19 21 18 22 23 21 20 17 16 15 14 12 12 11 11 13 11 11 13 16 18 19 20 20 20 19 15 14 12 11 10 11
17 15 15 13 11 10 8 9 10 12 17 22 24 21 22 26 27 20 19 16 15 15 14 13 14 13 13 14 11 12 14 17 19 18 18 18 21 19 15 14 13 12 11
18 17 15 15 13 11 9 9 11 14 16 18 18 19 17 24 27 26 21 19 15 17 15 15 14 15 15 16 17 19 20 21 21 21 21 20 21 21 19 17 15 15 14
17 18 18 16 16 12 11 10 12 14 14 11 11 10 12 15 26 24 22 22 18 19 16 15 15 16 16 17 18 18 21 28 26 23 23 20 19 21 20 18 17 17 16
21 21 19 18 18 16 12 12 12 14 10 7 5 3 10 17 22 22 22 21 19 17 15 14 15 14 14 15 14 12 11 12 21 22 21 19 21 22 23 20 19 21 19
20 21 17 19 20 18 13 12 13 13 9 7 4 0 5 12 19 19 18 20 18 16 14 13 14 14 13 14 14 13 11 12 15 19 21 21 22 21 22 22 21 20 20
16 18 17 17 16 15 11 16 16 13 10 8 5 4 4 10 15 17 18 18 17 17 15 14 13 14 13 13 13 11 8 12 16 19 22 21 21 22 21 21 22 23 22
20 20 13 5 3 13 18 15 15 16 10 12 8 6 6 7 10 15 18 19 18 15 13 14 13 13 13 13 12 7 5 7 8 17 18 18 18 18 20 23 23 23 22
23 22 16 12 9 20 19 17 17 18 15 14 11 9 8 8 9 10 11 10 10 12 13 14 15 16 16 13 15 16 15 7 6 5 11 11 12 14 14 14 18 20 20
26 22 17 12 5 15 20 25 22 18 17 14 15 12 10 10 10 10 10 9 10 12 14 15 15 16 17 17 17 16 17 19 18 12 10 10 10 9 10 7 8 9 11
24 29 19 13 6 20 17 19 22 18 15 16 17 14 11 11 11 11 10 9 9 12 12 12 12 12 12 13 14 15 14 14 20 16 13 10 8 6 4 5 6 6 8
Wind_Direction
165 158 157 157 153 152 153 153 147 146 151 151 154 158 156 159 156 146 134 136 135 129 130 125 134 133 134 132 123 125 124 112 113 108 106 115 117 123 112 124 113 116 118
158 158 161 159 156 153 152 152 150 146 149 148 150 153 157 158 148 141 140 134 135 139 132 129 138 132 141 142 130 125 122 120 116 117 111 111 122 119 111 122 130 132 124
157 156 160 163 159 158 154 155 153 148 149 147 148 151 151 149 142 137 139 139 136 143 140 138 135 139 142 128 130 132 130 124 128 117 115 117 120 123 123 122 116 122 122
158 157 159 165 164 162 161 162 156 154 157 152 152 148 146 150 154 147 141 149 143 140 141 143 143 147 143 136 131 125 125 121 127 131 118 114 122 127 120 122 118 117 121
163 164 164 164 165 167 165 168 164 162 161 158 156 157 147 158 157 151 145 151 154 150 147 145 148 143 144 137 136 138 132 124 124 127 128 123 130 132 124 121 132 127 122
167 172 169 169 171 172 171 173 174 170 170 172 171 171 158 148 136 145 140 156 163 158 152 159 159 147 155 151 147 142 139 127 122 127 129 122 135 140 136 141 141 143 144
171 174 176 177 175 177 176 179 181 181 181 185 184 181 182 176 178 170 164 153 169 168 162 175 162 157 158 162 156 146 151 145 133 127 133 142 141 144 146 149 151 151 146
178 176 176 180 183 188 185 187 193 192 190 194 197 193 198 197 193 183 178 179 177 166 170 169 165 171 162 161 169 169 160 164 156 154 150 144 150 151 152 153 155 159 158
180 183 179 183 189 194 200 197 201 202 202 202 209 205 205 203 203 193 186 189 183 181 175 173 176 180 177 173 175 175 167 156 159 164 165 155 150 153 158 165 166 172 176
186 191 189 189 193 194 200 207 211 208 209 211 216 217 217 210 206 200 203 196 189 187 187 181 181 191 193 192 191 185 181 185 184 185 189 179 160 156 170 185 184 191 189
192 197 197 200 199 200 200 206 211 216 218 219 218 223 220 215 212 206 206 202 198 196 190 187 190 196 204 204 208 207 204 203 199 194 200 190 178 172 172 195 200 201 203
186 195 202 207 207 207 206 206 210 213 227 238 232 228 224 220 216 211 209 206 202 199 196 196 197 198 204 204 211 214 216 212 204 203 205 214 204 199 203 202 216 222 218
182 189 186 201 207 211 214 211 209 204 242 248 248 240 232 222 219 215 212 206 203 204 200 203 199 201 206 214 217 222 225 221 217 215 216 220 216 213 225 224 226 228 228
196 195 191 196 204 210 213 217 208 212 229 334 232 235 230 228 222 216 213 205 208 211 210 207 207 202 209 219 226 228 229 228 227 227 228 231 233 234 237 237 233 235 234
208 207 201 200 197 206 207 207 210 229 246 291 292 240 238 231 221 219 220 228 223 214 211 206 205 198 207 219 227 232 233 232 234 232 237 237 242 246 233 245 241 239 237
215 209 212 211 205 210 211 214 221 242 256 266 269 263 246 236 228 219 219 225 227 210 205 207 210 220 228 237 243 233 230 232 235 236 241 243 242 246 243 243 245 244 242
219 220 219 217 219 224 227 232 246 257 268 268 269 265 249 233 226 219 215 228 226 220 216 223 225 238 243 243 243 233 231 232 234 236 240 245 241 240 242 245 245 247 247
221 226 223 228 228 232 236 253 275 275 278 292 284 253 250 232 220 220 214 218 228 222 225 229 235 245 247 249 248 248 245 238 238 241 244 246 238 233 245 248 247 245 244
227 233 233 228 232 237 242 259 272 281 288 296 295 267 236 212 197 210 214 221 234 223 228 234 243 251 256 251 264 258 252 245 235 241 244 241 238 238 249 250 252 249 246
236 245 248 244 237 233 236 258 271 276 277 293 310 272 218 203 197 203 218 218 215 214 229 246 252 250 257 246 251 244 245 235 232 228 237 244 244 243 248 250 254 249 248
240 250 258 256 253 240 247 262 273 280 265 273 286 231 194 198 199 209 204 205 210 219 248 250 252 248 245 240 240 245 241 237 233 235 240 245 245 245 245 251 254 247 248
230 244 246 243 246 253 264 283 284 283 248 241 244 216 185 196 200 201 207 209 226 244 249 250 250 246 237 228 238 233 236 235 237 237 240 244 246 251 253 255 254 249 248
228 227 222 229 279 274 257 269 280 282 256 232 230 216 201 191 199 216 220 231 239 241 245 243 244 245 241 236 226 209 214 225 213 236 239 243 249 253 253 254 252 250 248
214 213 201 248 312 274 265 269 273 275 270 244 231 226 212 213 207 200 203 213 227 234 237 246 248 246 243 238 235 233 233 226 212 211 223 225 242 251 255 256 250 248 247
223 218 204 152 351 303 268 261 261 262 264 243 233 230 223 218 220 207 212 218 231 240 248 248 248 247 243 240 237 239 241 239 236 239 240 236 253 261 243 245 249 237 238
207 221 211 181 349 291 282 247 255 263 249 247 233 232 221 218 217 219 218 231 250 258 256 246 239 243 242 242 240 239 235 236 241 236 230 227 231 237 225 227 230 246 236